EZY27A LPPT-LPMA

Flight info

Callsign EZY27A
Flight time N/A
Altitude 39000
Route ULVOT DCT GALPA DCT RAKUN
Aircraft A339/H-SADE1E2E3GHIJ3J5M1P2RWXY/LB2D1

Departure

Time 2026-05-07 19:32
Airport Lisbon Humberto Delgado Airport (LPPT)

Arrival

Time N/A
Airport Cristiano Ronaldo International Airport (LPMA)
Time Latitude Longitude Altitude Speed Heading
2026-05-07 19:06 38.77672 -9.13221 358 ft 0 kts 97°
2026-05-07 19:16 38.77674 -9.13246 356 ft 4 kts 97°
2026-05-07 19:16 38.77678 -9.13282 353 ft 4 kts 97°
2026-05-07 19:17 38.77686 -9.13318 363 ft 4 kts 141°
2026-05-07 19:17 38.77668 -9.13320 355 ft 0 kts 174°
2026-05-07 19:19 38.77665 -9.13319 360 ft 2 kts 174°
2026-05-07 19:19 38.77635 -9.13315 355 ft 6 kts 174°
2026-05-07 19:19 38.77576 -9.13308 360 ft 11 kts 175°
2026-05-07 19:20 38.77489 -9.13297 360 ft 14 kts 171°
2026-05-07 19:20 38.77388 -9.13268 360 ft 14 kts 171°
2026-05-07 19:20 38.77334 -9.13294 363 ft 6 kts 224°
2026-05-07 19:20 38.77323 -9.13340 359 ft 3 kts 260°
2026-05-07 19:21 38.77315 -9.13384 356 ft 7 kts 256°
2026-05-07 19:21 38.77300 -9.13462 354 ft 12 kts 257°
2026-05-07 19:21 38.77278 -9.13594 353 ft 18 kts 258°
2026-05-07 19:21 38.77250 -9.13774 356 ft 22 kts 259°
2026-05-07 19:22 38.77183 -9.13870 360 ft 14 kts 199°
2026-05-07 19:22 38.77073 -9.13925 361 ft 20 kts 203°
2026-05-07 19:22 38.76921 -9.14009 359 ft 27 kts 203°
2026-05-07 19:22 38.76740 -9.14106 356 ft 25 kts 202°
2026-05-07 19:23 38.76713 -9.14121 356 ft 0 kts 202°
2026-05-07 19:23 38.76687 -9.14135 356 ft 3 kts 202°
2026-05-07 19:23 38.76677 -9.14140 356 ft 5 kts 202°
2026-05-07 19:23 38.76653 -9.14153 358 ft 4 kts 202°
2026-05-07 19:24 38.76648 -9.14155 358 ft 0 kts 202°
2026-05-07 19:25 38.76643 -9.14158 360 ft 4 kts 202°
2026-05-07 19:25 38.76598 -9.14191 360 ft 8 kts 224°
2026-05-07 19:26 38.76595 -9.14203 356 ft 0 kts 246°
2026-05-07 19:26 38.76595 -9.14213 355 ft 4 kts 261°
2026-05-07 19:26 38.76602 -9.14267 358 ft 0 kts 288°
2026-05-07 19:30 38.76604 -9.14275 358 ft 5 kts 288°
2026-05-07 19:30 38.76637 -9.14348 357 ft 13 kts 319°
2026-05-07 19:30 38.76713 -9.14354 355 ft 0 kts 19°
2026-05-07 19:31 38.76714 -9.14353 355 ft 2 kts 20°
2026-05-07 19:31 38.76749 -9.14333 353 ft 12 kts 23°
2026-05-07 19:31 38.77040 -9.14179 356 ft 98 kts 22°
2026-05-07 19:31 38.77972 -9.13675 485 ft 177 kts 20°
2026-05-07 19:32 38.79098 -9.13016 1560 ft 180 kts 20°
2026-05-07 19:32 38.80268 -9.12377 2598 ft 192 kts 19°
2026-05-07 19:32 38.81497 -9.11537 3426 ft 211 kts 30°
2026-05-07 19:32 38.82754 -9.10386 4109 ft 233 kts 32°
2026-05-07 19:33 38.84135 -9.09170 4859 ft 247 kts 31°
2026-05-07 19:33 38.85664 -9.08076 5611 ft 256 kts 25°
2026-05-07 19:33 38.87280 -9.07095 6396 ft 264 kts 26°
2026-05-07 19:33 38.88840 -9.05794 7088 ft 274 kts 46°
2026-05-07 19:34 38.89783 -9.03687 7871 ft 275 kts 80°
2026-05-07 19:34 38.89621 -9.01295 8751 ft 270 kts 116°
2026-05-07 19:34 38.88536 -8.99349 9652 ft 269 kts 137°
2026-05-07 19:34 38.87010 -8.97932 10411 ft 274 kts 155°
2026-05-07 19:35 38.85201 -8.97093 11158 ft 280 kts 167°
2026-05-07 19:35 38.83241 -8.96783 11915 ft 287 kts 181°
2026-05-07 19:35 38.81265 -8.97287 12696 ft 294 kts 200°
2026-05-07 19:35 38.79389 -8.98318 13478 ft 300 kts 202°
2026-05-07 19:36 38.77448 -8.99390 14226 ft 306 kts 202°
2026-05-07 19:36 38.75443 -9.00483 14692 ft 321 kts 202°
2026-05-07 19:36 38.73321 -9.01626 14864 ft 336 kts 202°
2026-05-07 19:36 38.71153 -9.02788 14906 ft 337 kts 202°
2026-05-07 19:37 38.68984 -9.03949 14910 ft 337 kts 202°
2026-05-07 19:37 38.66862 -9.05082 14909 ft 337 kts 202°
2026-05-07 19:37 38.64690 -9.06242 14940 ft 339 kts 202°
2026-05-07 19:37 38.62496 -9.07412 15495 ft 341 kts 202°
2026-05-07 19:38 38.60306 -9.08577 16319 ft 341 kts 202°
2026-05-07 19:38 38.58097 -9.09751 17032 ft 345 kts 203°
2026-05-07 19:38 38.55863 -9.10939 17763 ft 349 kts 203°
2026-05-07 19:38 38.53632 -9.12125 18444 ft 352 kts 204°
2026-05-07 19:39 38.51356 -9.13336 19077 ft 355 kts 204°
2026-05-07 19:39 38.49064 -9.14556 19716 ft 358 kts 204°
2026-05-07 19:39 38.46743 -9.15790 20355 ft 362 kts 204°
2026-05-07 19:39 38.44409 -9.17031 20991 ft 365 kts 204°
2026-05-07 19:40 38.42120 -9.18462 21605 ft 368 kts 210°
2026-05-07 19:40 38.39964 -9.20257 22258 ft 372 kts 216°
2026-05-07 19:40 38.37911 -9.22288 22886 ft 376 kts 217°
2026-05-07 19:40 38.35860 -9.24316 23478 ft 380 kts 217°
2026-05-07 19:41 38.33759 -9.26378 24071 ft 382 kts 217°
2026-05-07 19:41 38.31637 -9.28448 24654 ft 384 kts 217°
2026-05-07 19:41 38.29503 -9.30525 25209 ft 387 kts 217°
2026-05-07 19:41 38.27355 -9.32614 25782 ft 389 kts 217°
2026-05-07 19:42 38.25196 -9.34710 26327 ft 392 kts 217°
2026-05-07 19:42 38.23012 -9.36831 26880 ft 395 kts 217°
2026-05-07 19:42 38.20853 -9.38926 27412 ft 397 kts 217°
2026-05-07 19:42 38.18643 -9.41069 27935 ft 400 kts 217°
2026-05-07 19:43 38.16426 -9.43217 28452 ft 402 kts 217°
2026-05-07 19:43 38.14186 -9.45386 28962 ft 405 kts 217°
2026-05-07 19:43 38.11938 -9.47560 29458 ft 407 kts 217°
2026-05-07 19:43 38.09673 -9.49749 29965 ft 410 kts 217°
2026-05-07 19:44 38.07396 -9.51948 30445 ft 411 kts 217°
2026-05-07 19:44 38.05119 -9.54145 31009 ft 410 kts 217°
2026-05-07 19:44 38.02841 -9.56341 31549 ft 411 kts 217°
2026-05-07 19:44 38.00564 -9.58534 32047 ft 411 kts 217°
2026-05-07 19:45 37.98332 -9.60726 32518 ft 411 kts 219°
2026-05-07 19:45 37.96135 -9.63059 32914 ft 412 kts 220°
2026-05-07 19:45 37.93960 -9.65434 33241 ft 413 kts 221°
2026-05-07 19:45 37.91780 -9.67810 33540 ft 413 kts 220°
2026-05-07 19:46 37.89593 -9.70172 33894 ft 412 kts 220°
2026-05-07 19:46 37.87414 -9.72506 34219 ft 410 kts 220°
2026-05-07 19:46 37.85234 -9.74830 34493 ft 409 kts 220°
2026-05-07 19:46 37.83058 -9.77143 34768 ft 408 kts 220°
2026-05-07 19:47 37.80884 -9.79452 35047 ft 407 kts 220°
2026-05-07 19:47 37.78741 -9.81726 35317 ft 406 kts 220°
2026-05-07 19:47 37.76578 -9.84019 35596 ft 405 kts 220°
2026-05-07 19:47 37.74417 -9.86310 35862 ft 405 kts 220°
2026-05-07 19:48 37.72256 -9.88599 36132 ft 404 kts 220°
2026-05-07 19:48 37.70103 -9.90876 36404 ft 403 kts 220°
2026-05-07 19:48 37.67952 -9.93150 36673 ft 403 kts 220°
2026-05-07 19:48 37.65805 -9.95419 36931 ft 402 kts 220°
2026-05-07 19:49 37.63674 -9.97705 37189 ft 401 kts 221°
2026-05-07 19:49 37.61718 -10.00159 37435 ft 401 kts 226°
2026-05-07 19:49 37.59926 -10.02863 37690 ft 401 kts 230°
2026-05-07 19:49 37.58195 -10.05623 37944 ft 401 kts 230°
2026-05-07 19:50 37.56460 -10.08370 38207 ft 401 kts 230°
2026-05-07 19:50 37.54714 -10.11120 38451 ft 400 kts 230°
2026-05-07 19:50 37.52997 -10.13822 38687 ft 400 kts 229°
2026-05-07 19:50 37.51255 -10.16558 38853 ft 400 kts 230°
2026-05-07 19:51 37.47765 -10.22038 38952 ft 400 kts 230°
2026-05-07 19:51 37.44278 -10.27505 38955 ft 400 kts 229°
2026-05-07 19:52 37.40781 -10.32975 38952 ft 400 kts 229°
2026-05-07 19:52 37.37285 -10.38431 38950 ft 400 kts 229°
2026-05-07 19:53 37.33787 -10.43882 38950 ft 400 kts 229°
2026-05-07 19:53 37.30316 -10.49281 38950 ft 400 kts 229°
2026-05-07 19:54 37.26813 -10.54722 38952 ft 400 kts 229°
2026-05-07 19:54 37.23305 -10.60161 38950 ft 400 kts 229°
2026-05-07 19:55 37.19801 -10.65586 38948 ft 400 kts 229°
2026-05-07 19:55 37.16291 -10.71011 38948 ft 400 kts 229°
2026-05-07 19:56 37.12776 -10.76433 38950 ft 401 kts 229°
2026-05-07 19:56 37.09259 -10.81851 38945 ft 401 kts 229°
2026-05-07 19:57 37.05730 -10.87279 38946 ft 401 kts 229°
2026-05-07 19:57 37.02214 -10.92676 38948 ft 402 kts 229°
2026-05-07 19:58 36.98675 -10.98101 38950 ft 402 kts 229°
2026-05-07 19:58 36.95128 -11.03518 38945 ft 402 kts 228°
2026-05-07 19:59 36.91578 -11.08937 38945 ft 403 kts 229°
2026-05-07 19:59 36.88042 -11.14335 38945 ft 403 kts 229°
2026-05-07 20:00 36.84478 -11.19770 38951 ft 404 kts 228°
2026-05-07 20:00 36.81512 -11.24283 38951 ft 404 kts 228°
2026-05-07 20:01 36.77931 -11.29720 38957 ft 405 kts 228°
2026-05-07 20:01 36.74371 -11.35117 38956 ft 406 kts 228°
2026-05-07 20:02 36.70780 -11.40552 38942 ft 406 kts 228°
2026-05-07 20:02 36.67188 -11.45981 38958 ft 406 kts 228°
2026-05-07 20:03 36.63587 -11.51413 38951 ft 407 kts 228°
2026-05-07 20:03 36.59977 -11.56850 38960 ft 407 kts 229°
2026-05-07 20:04 36.56361 -11.62288 38952 ft 407 kts 229°
2026-05-07 20:04 36.52761 -11.67692 38940 ft 408 kts 229°
2026-05-07 20:05 36.49139 -11.73122 38965 ft 408 kts 229°
2026-05-07 20:05 36.45508 -11.78555 38947 ft 408 kts 229°
2026-05-07 20:06 36.41874 -11.83984 38952 ft 409 kts 229°
2026-05-07 20:06 36.38261 -11.89374 38951 ft 409 kts 229°
2026-05-07 20:07 36.34617 -11.94800 38951 ft 409 kts 229°
2026-05-07 20:07 36.30956 -12.00242 38949 ft 410 kts 229°
2026-05-07 20:08 36.27298 -12.05671 38949 ft 410 kts 229°
2026-05-07 20:08 36.23653 -12.11074 38951 ft 411 kts 229°
2026-05-07 20:09 36.19979 -12.16509 38951 ft 411 kts 229°
2026-05-07 20:10 36.14456 -12.24665 38951 ft 412 kts 229°
2026-05-07 20:10 36.10763 -12.30107 38950 ft 413 kts 229°
2026-05-07 20:11 36.07093 -12.35507 38954 ft 413 kts 229°
2026-05-07 20:11 36.03384 -12.40956 38953 ft 414 kts 229°
2026-05-07 20:12 35.99765 -12.46266 38958 ft 389 kts 229°
2026-05-07 20:12 35.98053 -12.48775 38956 ft 374 kts 229°
2026-05-07 20:12 35.96410 -12.51181 38958 ft 359 kts 229°
2026-05-07 20:12 35.94829 -12.53495 38959 ft 345 kts 229°
2026-05-07 20:13 35.93330 -12.55686 38959 ft 332 kts 229°
2026-05-07 20:13 35.90327 -12.60072 38930 ft 338 kts 229°
2026-05-07 20:13 35.88810 -12.62285 38726 ft 338 kts 229°
2026-05-07 20:14 35.87282 -12.64514 38133 ft 342 kts 229°
2026-05-07 20:14 35.85724 -12.66788 37326 ft 349 kts 228°
2026-05-07 20:14 35.84137 -12.69103 36397 ft 358 kts 228°
2026-05-07 20:14 35.82506 -12.71479 35403 ft 368 kts 227°
2026-05-07 20:15 35.80831 -12.73916 34454 ft 377 kts 226°
2026-05-07 20:15 35.79145 -12.76370 33920 ft 373 kts 226°
2026-05-07 20:15 35.77478 -12.78794 33180 ft 371 kts 226°
2026-05-07 20:15 35.75823 -12.81197 32340 ft 372 kts 226°
2026-05-07 20:16 35.74144 -12.83631 31436 ft 373 kts 225°
2026-05-07 20:16 35.72465 -12.86064 30746 ft 371 kts 225°
2026-05-07 20:16 35.70806 -12.88472 30138 ft 366 kts 225°
2026-05-07 20:16 35.69167 -12.90845 29404 ft 362 kts 225°
2026-05-07 20:17 35.67538 -12.93196 28582 ft 360 kts 225°
2026-05-07 20:17 35.65920 -12.95528 27813 ft 357 kts 225°
2026-05-07 20:17 35.64305 -12.97855 27045 ft 355 kts 226°
2026-05-07 20:17 35.62708 -13.00156 26275 ft 353 kts 226°
2026-05-07 20:18 35.61138 -13.02419 25533 ft 351 kts 226°
2026-05-07 20:18 35.59556 -13.04698 24782 ft 349 kts 227°
2026-05-07 20:18 35.57980 -13.06965 24238 ft 345 kts 227°
2026-05-07 20:18 35.56417 -13.09212 24040 ft 348 kts 227°
2026-05-07 20:19 35.54839 -13.11481 23973 ft 349 kts 227°
2026-05-07 20:19 35.53256 -13.13756 23962 ft 349 kts 227°
2026-05-07 20:19 35.51676 -13.16026 23965 ft 349 kts 228°
2026-05-07 20:19 35.50115 -13.18266 23964 ft 350 kts 228°
2026-05-07 20:20 35.48511 -13.20567 23965 ft 350 kts 228°
2026-05-07 20:20 35.46949 -13.22806 23962 ft 350 kts 228°
2026-05-07 20:20 35.45366 -13.25074 23964 ft 350 kts 228°
2026-05-07 20:20 35.43783 -13.27340 23965 ft 350 kts 228°
2026-05-07 20:21 35.42196 -13.29611 23960 ft 350 kts 228°
2026-05-07 20:21 35.40611 -13.31876 23964 ft 350 kts 228°
2026-05-07 20:21 35.39024 -13.34144 23962 ft 350 kts 228°
2026-05-07 20:21 35.37437 -13.36409 23964 ft 351 kts 228°
2026-05-07 20:22 35.35845 -13.38680 23963 ft 351 kts 228°
2026-05-07 20:22 35.34253 -13.40951 23963 ft 351 kts 229°
2026-05-07 20:22 35.32658 -13.43223 23962 ft 352 kts 229°
2026-05-07 20:22 35.31060 -13.45498 23962 ft 353 kts 229°
2026-05-07 20:23 35.29459 -13.47775 23963 ft 353 kts 229°
2026-05-07 20:23 35.27858 -13.50053 23963 ft 353 kts 229°
2026-05-07 20:23 35.26249 -13.52339 23961 ft 354 kts 229°
2026-05-07 20:23 35.24642 -13.54621 23958 ft 355 kts 229°
2026-05-07 20:24 35.23030 -13.56908 23963 ft 355 kts 229°
2026-05-07 20:24 35.21417 -13.59196 23960 ft 355 kts 230°
2026-05-07 20:24 35.19824 -13.61454 23956 ft 355 kts 230°
2026-05-07 20:24 35.18201 -13.63752 23961 ft 356 kts 230°
2026-05-07 20:25 35.16580 -13.66046 23961 ft 357 kts 230°
2026-05-07 20:25 35.14957 -13.68342 23962 ft 357 kts 230°
2026-05-07 20:25 35.13328 -13.70645 23962 ft 358 kts 230°
2026-05-07 20:25 35.11702 -13.72943 23961 ft 358 kts 230°
2026-05-07 20:26 35.10071 -13.75245 23962 ft 358 kts 230°
2026-05-07 20:26 35.08444 -13.77541 23961 ft 358 kts 230°
2026-05-07 20:26 35.06812 -13.79842 23959 ft 358 kts 231°
2026-05-07 20:26 35.05178 -13.82144 23957 ft 358 kts 231°
2026-05-07 20:27 35.03547 -13.84442 23929 ft 357 kts 231°
2026-05-07 20:27 35.01924 -13.86724 23624 ft 354 kts 231°
2026-05-07 20:27 35.00310 -13.88992 22997 ft 353 kts 231°
2026-05-07 20:27 34.98730 -13.91210 22291 ft 349 kts 231°
2026-05-07 20:28 34.97140 -13.93442 21448 ft 346 kts 232°
2026-05-07 20:28 34.95570 -13.95645 20678 ft 342 kts 232°
2026-05-07 20:28 34.94014 -13.97826 19905 ft 339 kts 232°
2026-05-07 20:28 34.92472 -13.99989 19146 ft 336 kts 232°
2026-05-07 20:29 34.90941 -14.02133 18413 ft 333 kts 232°
2026-05-07 20:29 34.89427 -14.04254 17605 ft 330 kts 232°
2026-05-07 20:29 34.87936 -14.06341 17141 ft 324 kts 232°
2026-05-07 20:29 34.86461 -14.08409 16999 ft 329 kts 233°
2026-05-07 20:30 34.84962 -14.10507 16958 ft 328 kts 232°
2026-05-07 20:30 34.83461 -14.12605 16961 ft 328 kts 232°
2026-05-07 20:30 34.81962 -14.14696 16961 ft 328 kts 232°
2026-05-07 20:30 34.80460 -14.16792 16971 ft 328 kts 232°
2026-05-07 20:31 34.78955 -14.18891 16956 ft 328 kts 232°
2026-05-07 20:31 34.77455 -14.20980 16973 ft 328 kts 233°
2026-05-07 20:31 34.75949 -14.23077 16957 ft 329 kts 233°
2026-05-07 20:31 34.74440 -14.25177 16952 ft 329 kts 233°
2026-05-07 20:32 34.72934 -14.27272 16971 ft 329 kts 233°
2026-05-07 20:32 34.71427 -14.29367 16950 ft 329 kts 233°
2026-05-07 20:32 34.69936 -14.31438 16969 ft 329 kts 233°
2026-05-07 20:32 34.68432 -14.33526 16955 ft 329 kts 233°
2026-05-07 20:33 34.66922 -14.35621 16970 ft 329 kts 233°
2026-05-07 20:33 34.65410 -14.37717 16973 ft 329 kts 233°
2026-05-07 20:33 34.63899 -14.39812 16949 ft 329 kts 233°
2026-05-07 20:33 34.62388 -14.41905 16958 ft 329 kts 233°
2026-05-07 20:34 34.60878 -14.43995 16960 ft 329 kts 233°
2026-05-07 20:34 34.59368 -14.46083 16960 ft 329 kts 233°
2026-05-07 20:34 34.57855 -14.48175 16964 ft 330 kts 233°
2026-05-07 20:34 34.56345 -14.50262 16952 ft 330 kts 233°
2026-05-07 20:35 34.54831 -14.52352 16955 ft 329 kts 233°
2026-05-07 20:35 34.53317 -14.54441 16961 ft 329 kts 233°
2026-05-07 20:35 34.51824 -14.56501 16962 ft 330 kts 233°
2026-05-07 20:35 34.50308 -14.58593 16963 ft 330 kts 233°
2026-05-07 20:36 34.48794 -14.60680 16961 ft 330 kts 233°
2026-05-07 20:36 34.47277 -14.62770 16959 ft 330 kts 233°
2026-05-07 20:36 34.45763 -14.64855 16961 ft 330 kts 233°
2026-05-07 20:36 34.44244 -14.66946 16960 ft 330 kts 233°
2026-05-07 20:37 34.42729 -14.69031 16960 ft 330 kts 233°
2026-05-07 20:37 34.41213 -14.71115 16959 ft 330 kts 233°
2026-05-07 20:37 34.39703 -14.73174 16961 ft 330 kts 232°
2026-05-07 20:37 34.38096 -14.75172 16962 ft 331 kts 231°
2026-05-07 20:38 34.36502 -14.77184 16961 ft 331 kts 231°
2026-05-07 20:38 34.34919 -14.79202 16962 ft 331 kts 231°
2026-05-07 20:38 34.33334 -14.81223 16959 ft 331 kts 231°
2026-05-07 20:38 34.31747 -14.83240 16960 ft 331 kts 231°
2026-05-07 20:39 34.30156 -14.85256 16961 ft 331 kts 231°
2026-05-07 20:39 34.28560 -14.87274 16963 ft 331 kts 231°
2026-05-07 20:39 34.26969 -14.89283 16964 ft 331 kts 231°
2026-05-07 20:39 34.25375 -14.91294 16961 ft 331 kts 231°
2026-05-07 20:40 34.23806 -14.93273 16963 ft 331 kts 231°
2026-05-07 20:40 34.22213 -14.95281 16962 ft 331 kts 231°
2026-05-07 20:40 34.20619 -14.97289 16963 ft 331 kts 231°
2026-05-07 20:40 34.19026 -14.99295 16967 ft 330 kts 231°
2026-05-07 20:41 34.17433 -15.01300 16965 ft 330 kts 231°
2026-05-07 20:41 34.15842 -15.03302 16964 ft 330 kts 231°
2026-05-07 20:41 34.14251 -15.05303 16965 ft 330 kts 231°
2026-05-07 20:41 34.12658 -15.07303 16964 ft 330 kts 231°
2026-05-07 20:42 34.11070 -15.09298 16965 ft 330 kts 231°
2026-05-07 20:42 34.09502 -15.11266 16964 ft 330 kts 231°
2026-05-07 20:42 34.07914 -15.13258 16964 ft 329 kts 231°
2026-05-07 20:42 34.06326 -15.15249 16962 ft 329 kts 231°
2026-05-07 20:43 34.04735 -15.17241 16965 ft 329 kts 231°
2026-05-07 20:43 34.03146 -15.19231 16966 ft 329 kts 231°
2026-05-07 20:43 34.01559 -15.21217 16967 ft 329 kts 231°
2026-05-07 20:43 33.99969 -15.23205 16966 ft 329 kts 231°
2026-05-07 20:44 33.98382 -15.25189 16966 ft 329 kts 231°
2026-05-07 20:44 33.96798 -15.27168 16967 ft 328 kts 231°
2026-05-07 20:44 33.95212 -15.29147 16966 ft 328 kts 231°
2026-05-07 20:44 33.93626 -15.31127 16966 ft 328 kts 231°
2026-05-07 20:45 33.92038 -15.33106 16965 ft 328 kts 231°
2026-05-07 20:45 33.90456 -15.35078 16964 ft 328 kts 231°
2026-05-07 20:45 33.88888 -15.37032 16967 ft 328 kts 231°
2026-05-07 20:45 33.87300 -15.39008 16962 ft 327 kts 232°